Regional Weather Roundup
Issued by NWS Jackson, KY

Home | Current Version | Previous Version | Graphics & Text | Print | Product List | Glossary On
Versions: 1 2 3 4 5 6 7 8 9 10 11 12 13 14 15 16 17 18 19 20 21 22 23 24 25 26 27 28 29 30 31 32 33 34 35 36 37 38 39 40 41 42 43 44 45 46 47 48 49 50
744
ASUS43 KJKL 242010
RWRJKL

EAST KENTUCKY HOURLY WEATHER ROUNDUP
NATIONAL WEATHER SERVICE JACKSON KY
400 PM EDT MON JUL 24 2017

NOTE: "FAIR" INDICATES FEW OR NO CLOUDS BELOW 12,000 FEET WITH
NO SIGNIFICANT WEATHER AND/OR OBSTRUCTIONS TO VISIBILITY.

* THESE REPORTS ARE NOT UNDER NWS QUALITY CONTROL AND MAY NOT
  REPORT WEATHER SUCH AS PRECIPITATION AND FOG.

KYZ079-080-083-085-087-088-110-112-115-119-120-242100
...EASTERN KENTUCKY...

CITY           SKY/WX    TMP DP  RH WIND       PRES   REMARKS
JACKSON        PTSUNNY   84  71  65 VRB3      29.96F
LONDON         PTSUNNY   89  61  38 W15       29.97F
SOMERSET*      PTSUNNY   86  68  54 W10       29.98S
MONTICELLO*    CLOUDY    87  74  64 W13G18    29.99F HX  95
WILLIAMSBURG*  MOCLDY    86  68  54 SW7       29.98F
MIDDLESBORO*   MOSUNNY   87  68  53 S7        29.98F HX  90
HARLAN APT*    PTCLDY    88  64  45 W6        30.00
PIKE CO APT*   CLOUDY    83  70  65 S3        29.96F
BIG SANDY APT* CLOUDY    76  75  97 NE3       29.95F
MOREHEAD APT*  PTCLDY    84  68  58 NW12      29.96R
ASHLAND*       MOSUNNY   88  72  58 N5        29.89S HX  94
$$

KYZ035-036-041-042-044-050-067-078-099-242100
...CENTRAL KENTUCKY...

CITY           SKY/WX    TMP DP  RH WIND       PRES   REMARKS
MT STERLING*   MOSUNNY   86  68  54 NW7       29.96R
FLEMING/MASON* CLOUDY    84  66  54 NW8       29.95S
DANVILLE*      PTSUNNY   88  70  55 W9        29.96F HX  92
LEXINGTON      CLOUDY    81  69  67 SW9       29.95S THUNDER
FRANKFORT      MOSUNNY   87  65  47 NW6       29.93F
LOUISVILLE     PTSUNNY   90  67  46 NW9       29.92F HX  93
LEBANON*         N/A     86  70  58 W10       29.95F HX  90
GLASGOW*       PTSUNNY   90  69  50 W5        29.96F HX  94
BOWLING GREEN  MOSUNNY   91  71  51 VRB5      29.95F HX  97
$$

KYZ091>093-OHZ055-061-077-WVZ005-015-034-035-042-242100
...SOUTHERN OHIO/WEST VIRGINIA...

CITY           SKY/WX    TMP DP  RH WIND       PRES   REMARKS
COVINGTON      PTSUNNY   83  67  58 N10       29.96S
COLUMBUS       MOSUNNY   82  66  58 NW18G24   29.95R
DAYTON         MOSUNNY   78  64  61 N14       29.99S
WILMINGTON     MOSUNNY   82  68  62 NW13      29.95S
HUNTINGTON     CLOUDY    87  65  47 NW9       29.91S
CHARLESTON     PTSUNNY   85  71  63 NW10      29.90F HX  90
PINEVILLE*     MOSUNNY   85  66  51 MISG      30.02S
BECKLEY        LGT RAIN  76  64  66 W9        30.01S
BLUEFIELD      MOSUNNY   79  61  53 W8        30.05F
LOGAN CO APT*    N/A     81  70  69 SW6G13    29.97S
$$

VAZ002-007-008-TNZ017-027-036-066-071-242100
...SOUTHWEST VIRGINIA/EAST TENNESSEE...

CITY           SKY/WX    TMP DP  RH WIND       PRES   REMARKS
WISE*          CLOUDY    82  63  51 SW13      30.06F
JONESVILLE*      N/A     86  68  54 W7        30.01F
ABINGDON*      MOSUNNY   86  65  50 W8        30.03S
BRISTOL        PTSUNNY   86  65  49 SW9       30.00F
MORRISTOWN*    CLEAR     86  66  51 VRB7      29.99F
SEVIERVILLE*   CLEAR     90  66  45 SW6       29.96F HX  92
KNOXVILLE      PTSUNNY   88  68  51 VRB7      29.97F HX  91
LAFOLLETTE*    CLEAR     86  72  62 CALM      30.01F HX  92
OAK RIDGE      SUNNY     90  63  40 VRB3      29.99F HX  91
CROSSVILLE     MOSUNNY   84  67  56 SW7       30.04F
NASHVILLE      CLOUDY    92  71  50 CALM      29.96F HX  98
$$

...KEY TO REMARKS...
VSB - VISIBILITY IN MILES
WCI - WIND CHILL INDEX
HX  - HEAT INDEX

$$




USA.gov is the U.S. government's official web portal to all federal, state and local government web resources and services.